Wind_Speed
5 5 8 10 11 13 18 20 18 17 16 14 13 14 12 11 13 16 17 17 16 12 12 12 11 11 11 11 10 10 8 8 8 10 12 13 12 9 9 10 9 9 8
4 8 7 8 13 13 18 18 17 19 15 13 14 16 14 11 13 15 16 16 15 13 13 12 11 12 11 11 10 10 10 10 10 10 12 14 13 12 12 11 10 8 9
11 13 12 10 12 18 21 20 20 21 20 17 17 15 15 12 11 15 17 17 15 14 13 13 12 12 11 11 11 12 12 11 11 12 12 12 12 12 12 11 11 10 10
23 18 17 15 14 19 21 22 24 24 24 20 19 18 15 14 12 14 17 16 15 13 14 14 13 13 13 14 15 15 15 15 14 13 13 13 12 12 12 12 10 9 8
32 25 22 21 19 20 23 25 28 24 27 24 22 18 17 15 13 11 15 17 15 14 14 13 13 13 13 14 15 15 15 14 13 14 13 12 12 11 11 11 9 8 7
26 28 23 24 24 24 24 28 30 29 30 26 25 21 20 19 17 15 14 16 16 14 15 14 13 14 16 16 17 17 15 14 13 13 13 12 11 11 11 10 10 9 8
21 21 21 20 23 24 27 29 32 32 31 25 26 24 26 20 16 13 14 17 19 17 15 15 15 15 17 17 15 14 13 15 15 14 14 13 12 10 9 8 8 8 8
20 18 18 19 21 22 26 30 34 39 35 26 29 37 35 24 18 13 14 17 18 19 18 18 17 17 17 15 15 14 13 13 16 16 15 13 11 9 9 8 9 8 9
19 17 20 19 19 21 27 29 36 37 36 34 32 34 28 24 24 22 14 14 17 19 19 18 18 17 16 17 16 13 12 13 16 16 14 12 9 8 9 9 9 8 8
19 18 18 18 20 20 25 28 30 33 31 36 39 32 35 23 23 22 23 18 19 19 20 19 19 18 17 17 16 13 14 16 16 15 14 12 11 11 10 9 8 9 8
18 19 21 21 20 24 25 26 28 28 30 36 39 28 30 28 25 24 24 20 21 22 21 20 21 19 18 18 16 14 15 15 16 15 14 13 11 11 9 9 9 8 8
22 21 22 20 22 24 24 23 26 27 28 27 42 38 45 29 28 25 28 24 23 23 22 22 21 20 20 19 18 18 15 16 16 15 14 12 11 10 10 9 9 9 9
24 27 23 21 21 23 20 20 23 29 36 35 29 30 40 34 29 26 30 31 28 27 26 24 22 20 20 20 20 18 15 16 16 16 14 13 11 11 10 10 10 11 10
24 27 23 15 13 18 18 17 20 21 30 29 25 42 42 36 32 32 30 32 30 29 26 24 22 22 22 22 21 16 12 16 17 15 13 12 11 11 11 11 12 11 10
20 23 15 7 7 15 14 14 14 16 13 25 22 42 43 37 32 29 34 29 27 26 26 24 24 25 25 22 20 17 14 16 16 16 15 14 12 10 10 11 12 10 9
15 17 10 3 9 12 11 12 13 7 11 19 28 48 45 37 33 28 30 32 28 28 26 24 25 26 25 22 21 18 15 16 18 16 15 14 12 11 11 12 11 10 8
12 14 10 4 6 9 10 11 8 2 8 22 33 39 35 36 32 28 30 31 31 29 26 26 26 26 25 23 23 19 17 14 16 17 16 15 13 13 12 11 11 8 7
12 10 10 7 8 9 9 11 11 9 9 22 36 36 31 29 34 31 31 32 31 30 28 27 27 27 25 24 23 19 15 13 16 17 16 15 15 14 13 12 9 9 7
12 10 9 8 8 10 11 12 12 14 12 18 16 26 35 32 33 32 36 34 32 31 30 29 29 27 26 24 21 19 17 16 17 16 16 16 14 13 13 12 11 10 9
10 11 11 10 9 9 12 13 14 16 15 15 19 30 35 38 38 30 36 38 34 31 31 31 28 25 25 24 23 21 20 18 17 18 18 16 15 16 17 16 13 13 12
10 9 11 12 10 10 13 15 16 16 16 19 22 35 34 37 36 29 34 43 38 38 34 31 29 28 28 26 23 23 22 21 19 18 18 17 19 19 18 16 16 17 16
10 10 9 12 13 14 14 16 19 18 17 16 23 33 37 36 36 32 35 44 48 39 40 38 33 33 31 25 24 22 23 21 20 20 20 19 19 20 20 20 19 18 18
11 9 8 10 14 17 14 13 17 16 16 18 27 31 32 31 35 39 32 40 37 43 39 35 34 32 32 25 24 19 20 20 16 21 22 22 23 24 22 23 20 20 20
11 9 6 9 12 14 13 8 15 12 12 13 22 29 34 36 31 35 29 42 43 49 49 30 29 30 31 32 33 27 26 21 22 23 23 24 26 26 25 24 25 23 22
11 8 6 6 9 10 8 6 13 15 13 10 12 21 32 28 26 32 35 44 49 47 41 37 36 37 36 39 35 27 27 26 25 27 23 24 29 24 22 21 22 25 27
10 9 6 4 5 7 5 1 5 15 14 12 15 18 20 23 27 28 29 43 53 49 46 44 36 35 40 40 35 31 31 29 28 28 30 29 28 26 25 27 29 29 28
Wind_Direction
267 319 309 309 219 215 215 203 205 205 194 192 192 188 173 180 181 187 192 190 193 192 195 183 174 164 163 159 156 161 162 155 157 157 161 163 154 146 143 138 134 135 128
303 285 288 277 231 215 219 210 221 205 197 191 193 194 181 184 181 182 185 188 187 188 188 179 170 164 163 159 158 163 164 167 159 162 165 158 157 153 155 158 159 166 159
275 286 282 262 239 222 220 227 218 212 209 197 197 192 194 178 191 180 186 188 187 183 179 172 174 168 164 161 167 164 167 160 164 163 158 161 159 159 160 161 161 155 153
280 273 268 257 236 225 222 233 228 223 213 202 196 197 198 186 191 188 181 184 187 178 173 170 172 171 169 168 171 170 175 170 169 164 161 156 154 154 152 148 151 153 154
285 274 267 260 248 232 234 230 232 234 218 200 196 198 205 197 192 200 185 180 182 177 169 169 169 171 170 171 172 178 173 164 161 159 147 152 155 155 150 151 151 152 159
283 282 269 258 249 240 232 232 233 235 218 208 199 198 204 196 190 193 199 187 180 175 171 169 170 174 175 178 179 181 171 155 159 152 150 156 156 159 154 154 165 166 167
296 280 280 266 251 243 234 232 232 230 219 217 205 211 197 197 189 192 192 189 184 173 169 170 176 187 181 178 181 181 159 151 161 162 160 159 155 157 155 168 174 174 161
304 282 276 269 257 247 237 231 229 229 201 214 217 205 209 188 190 193 187 189 178 172 177 179 177 185 180 178 184 180 165 157 161 158 156 162 160 159 170 177 165 158 155
300 282 274 271 264 249 240 238 234 232 261 201 223 227 213 185 192 195 203 189 185 173 174 177 177 181 182 183 186 181 159 161 161 160 165 162 161 167 166 160 152 151 151
293 276 273 271 259 252 243 240 238 243 247 253 227 208 188 196 198 188 199 187 186 180 179 179 176 175 184 187 191 181 171 172 170 169 167 163 168 167 166 166 158 157 152
294 283 279 273 257 247 243 246 247 245 243 255 262 198 186 197 201 193 184 191 186 182 179 178 180 171 189 194 192 189 184 169 177 173 169 166 169 167 167 161 157 159 149
312 311 295 278 260 246 244 246 246 246 248 256 250 239 191 197 200 205 198 192 183 180 182 181 179 178 193 193 193 201 179 180 179 174 171 172 172 168 169 157 161 157 148
324 318 309 291 245 237 239 245 246 246 251 262 252 182 185 193 194 194 193 189 185 182 183 184 184 183 195 195 197 207 180 181 187 180 175 177 177 173 177 169 168 161 151
327 318 310 290 233 224 233 245 257 265 266 256 232 197 190 192 192 195 191 191 189 182 188 185 186 187 191 196 201 204 183 180 188 186 181 177 185 179 184 174 171 166 155
325 321 324 271 199 201 216 247 260 279 255 202 209 193 192 193 195 198 199 196 186 190 187 190 189 188 192 195 201 201 189 182 193 188 187 185 184 186 185 178 176 174 166
319 326 333 273 188 205 225 260 277 262 205 174 182 181 186 192 198 198 195 190 188 192 191 194 194 193 193 191 196 204 198 184 197 191 191 191 193 198 194 191 186 187 197
316 323 326 290 219 218 231 244 272 152 148 175 174 182 185 193 196 199 195 190 192 191 194 192 194 194 197 188 198 202 205 184 195 197 195 194 201 205 206 207 209 208 215
309 315 314 297 272 253 242 236 237 217 130 170 172 181 192 205 206 199 197 195 192 192 196 196 195 196 198 193 201 207 205 194 196 198 200 203 202 209 210 213 219 228 237
307 301 304 305 282 257 245 239 235 218 181 182 219 207 209 211 203 205 194 193 198 196 199 200 197 199 197 196 200 207 214 206 194 207 210 212 212 219 221 227 237 249 258
307 299 299 305 303 278 252 243 227 222 231 224 223 214 218 217 206 219 203 189 198 198 202 203 202 200 200 200 201 207 214 218 217 211 216 223 227 229 232 237 245 255 261
306 292 292 303 305 288 272 245 232 233 229 249 220 209 207 199 212 217 208 192 196 197 202 202 206 206 204 205 201 207 213 218 227 237 230 225 230 234 243 249 254 260 269
299 294 292 305 312 300 279 246 235 231 221 240 207 201 214 219 216 223 204 197 198 198 197 201 203 208 208 209 209 211 217 224 222 230 242 252 251 246 245 246 253 260 270
294 290 291 304 314 313 295 254 231 219 213 205 192 198 205 212 217 215 216 216 202 202 196 180 210 211 209 208 216 226 228 231 233 236 239 242 249 260 264 265 258 262 274
289 291 293 301 315 322 317 215 203 215 224 187 171 191 193 194 212 207 214 208 206 204 204 208 216 217 213 214 220 220 222 231 241 246 251 250 248 250 252 255 267 271 273
293 284 278 290 315 333 339 236 214 204 200 203 150 186 202 206 206 210 218 221 221 217 205 213 216 216 217 217 235 228 230 236 244 250 250 249 252 255 257 253 252 261 267
279 278 267 271 317 340 2 340 226 222 221 214 190 192 208 220 214 221 220 221 222 217 210 212 213 216 223 226 238 222 233 238 242 250 256 251 252 253 254 256 261 265 270
Height
3131 3132 3132 3132 3133 3134 3135 3136 3137 3139 3140 3142 3143 3145 3146 3147 3147 3148 3149 3150 3152 3153 3156 3157 3158 3159 3159 3160 3161 3163 3164 3166 3167 3168 3170 3172 3173 3175 3176 3177 3179 3180 3180
3130 3130 3131 3131 3132 3132 3134 3135 3136 3137 3139 3141 3142 3143 3144 3146 3146 3147 3148 3150 3151 3153 3155 3156 3157 3158 3159 3160 3160 3162 3164 3166 3167 3169 3171 3171 3173 3174 3175 3176 3177 3178 3179
3129 3129 3129 3130 3130 3131 3133 3134 3134 3135 3136 3138 3141 3142 3143 3144 3145 3145 3146 3148 3150 3152 3154 3155 3157 3158 3159 3160 3161 3162 3163 3166 3168 3169 3170 3172 3173 3174 3175 3176 3177 3178 3179
3126 3127 3127 3128 3127 3128 3129 3131 3132 3132 3133 3135 3137 3139 3141 3142 3144 3144 3145 3147 3149 3151 3153 3154 3155 3157 3159 3159 3160 3161 3164 3165 3168 3169 3170 3171 3173 3175 3176 3177 3179 3180 3181
3118 3122 3124 3123 3124 3125 3125 3126 3127 3128 3130 3131 3133 3137 3140 3141 3142 3145 3144 3145 3148 3151 3152 3154 3155 3157 3158 3159 3159 3162 3163 3165 3168 3169 3171 3173 3174 3175 3177 3178 3180 3181 3182
3117 3114 3119 3119 3118 3119 3120 3122 3123 3124 3125 3127 3130 3132 3136 3138 3139 3141 3143 3144 3146 3149 3152 3153 3155 3157 3158 3158 3160 3161 3162 3167 3168 3170 3171 3173 3175 3176 3178 3178 3179 3180 3181
3112 3112 3112 3112 3112 3113 3114 3116 3119 3119 3120 3124 3128 3128 3128 3134 3136 3139 3141 3143 3144 3147 3150 3152 3155 3157 3158 3158 3159 3162 3164 3167 3168 3169 3172 3174 3176 3177 3178 3179 3181 3181 3181
3109 3109 3108 3107 3108 3109 3110 3109 3109 3108 3104 3118 3122 3120 3121 3128 3133 3136 3139 3141 3142 3145 3148 3152 3153 3156 3157 3158 3160 3161 3165 3167 3168 3169 3171 3174 3176 3177 3178 3179 3180 3181 3181
3107 3105 3104 3103 3103 3104 3104 3105 3105 3103 3103 3108 3114 3109 3119 3123 3129 3133 3136 3138 3141 3144 3147 3151 3153 3156 3158 3158 3158 3161 3165 3166 3167 3169 3171 3173 3175 3177 3178 3179 3180 3181 3182
3102 3101 3099 3099 3100 3099 3097 3098 3101 3102 3104 3109 3107 3102 3104 3123 3126 3131 3136 3137 3140 3143 3147 3150 3153 3155 3157 3158 3157 3160 3163 3166 3167 3169 3171 3173 3176 3177 3178 3179 3180 3181 3182
3097 3095 3094 3094 3094 3093 3092 3094 3097 3100 3102 3100 3104 3097 3102 3122 3124 3129 3131 3136 3139 3141 3144 3148 3153 3153 3156 3157 3158 3160 3163 3166 3167 3169 3171 3173 3175 3176 3178 3179 3180 3182 3183
3092 3090 3088 3088 3086 3087 3088 3090 3092 3094 3095 3100 3099 3097 3103 3116 3120 3124 3129 3133 3136 3139 3144 3148 3150 3152 3155 3156 3157 3158 3164 3166 3167 3169 3172 3173 3174 3176 3178 3178 3180 3182 3183
3086 3082 3081 3079 3078 3081 3084 3087 3087 3088 3089 3088 3087 3074 3101 3110 3116 3121 3124 3129 3132 3136 3140 3145 3148 3150 3155 3156 3156 3157 3163 3165 3167 3169 3171 3173 3175 3176 3177 3178 3180 3181 3183
3081 3076 3073 3071 3072 3076 3080 3081 3082 3081 3080 3077 3075 3088 3097 3105 3113 3118 3123 3127 3130 3134 3139 3143 3147 3150 3152 3153 3155 3156 3161 3164 3166 3169 3171 3173 3175 3176 3177 3178 3180 3182 3183
3080 3075 3070 3068 3069 3073 3076 3076 3076 3075 3069 3070 3074 3082 3092 3104 3111 3115 3121 3125 3128 3133 3137 3141 3145 3148 3148 3152 3154 3155 3159 3163 3165 3168 3170 3172 3174 3176 3177 3178 3180 3182 3183
3078 3073 3069 3068 3069 3070 3073 3073 3072 3070 3070 3071 3073 3082 3092 3102 3108 3113 3118 3123 3127 3132 3135 3140 3144 3146 3147 3151 3152 3153 3158 3162 3164 3166 3169 3172 3173 3175 3177 3179 3180 3181 3182
3077 3072 3068 3067 3068 3070 3072 3072 3070 3070 3069 3074 3076 3083 3091 3099 3105 3111 3116 3120 3126 3129 3133 3137 3141 3144 3147 3149 3150 3152 3156 3160 3162 3165 3167 3169 3172 3174 3177 3178 3179 3180 3180
3074 3071 3068 3065 3066 3069 3070 3070 3071 3070 3071 3072 3078 3085 3089 3096 3101 3108 3112 3118 3122 3125 3130 3135 3139 3141 3144 3147 3148 3150 3154 3158 3161 3163 3165 3168 3170 3173 3174 3176 3178 3178 3178
3072 3070 3067 3064 3064 3066 3066 3068 3069 3070 3071 3074 3078 3083 3088 3094 3098 3104 3110 3115 3120 3123 3127 3132 3136 3140 3142 3145 3147 3149 3152 3156 3160 3162 3164 3166 3168 3170 3172 3174 3175 3177 3176
3069 3067 3065 3064 3062 3063 3064 3065 3066 3068 3070 3071 3073 3076 3082 3087 3093 3099 3104 3111 3117 3120 3124 3128 3132 3135 3139 3143 3145 3148 3150 3153 3156 3161 3163 3164 3166 3167 3169 3171 3172 3174 3174
3066 3065 3063 3062 3062 3060 3060 3060 3062 3066 3068 3068 3070 3075 3078 3084 3089 3093 3100 3105 3112 3115 3120 3125 3129 3132 3135 3138 3142 3144 3147 3150 3153 3155 3158 3161 3163 3165 3166 3167 3169 3170 3170
3063 3061 3060 3059 3059 3058 3056 3057 3060 3063 3065 3066 3068 3071 3075 3080 3086 3090 3095 3099 3105 3110 3114 3119 3124 3128 3131 3134 3138 3141 3143 3147 3150 3153 3153 3154 3157 3159 3161 3163 3165 3166 3166
3060 3059 3057 3057 3056 3054 3053 3053 3055 3059 3062 3062 3062 3067 3071 3077 3082 3086 3092 3096 3101 3106 3109 3112 3120 3124 3127 3131 3134 3137 3140 3143 3146 3148 3150 3152 3153 3152 3153 3155 3159 3160 3161
3057 3056 3055 3054 3053 3052 3050 3050 3053 3056 3059 3061 3062 3065 3069 3075 3080 3084 3090 3094 3097 3101 3104 3108 3116 3120 3124 3127 3128 3132 3136 3140 3142 3144 3144 3146 3148 3149 3151 3152 3152 3154 3155
3055 3055 3053 3053 3052 3050 3050 3048 3050 3053 3056 3058 3058 3064 3070 3073 3077 3081 3085 3089 3093 3098 3102 3107 3112 3116 3120 3123 3125 3128 3133 3136 3138 3138 3140 3141 3141 3144 3146 3147 3148 3149 3149
3052 3053 3052 3050 3050 3050 3049 3048 3049 3051 3054 3056 3057 3061 3065 3070 3074 3078 3082 3084 3088 3093 3098 3103 3108 3112 3115 3118 3121 3125 3128 3130 3133 3133 3133 3135 3136 3138 3140 3141 3141 3142 3142